Regional Weather Roundup
Issued by NWS State College, PA

Home | Current Version | Previous Version | Graphics & Text | Print | Product List | Glossary Off
Versions: 1 2 3 4 5 6 7 8 9 10 11 12 13 14 15 16 17 18 19 20 21 22 23 24 25 26 27 28 29 30 31 32 33 34 35 36 37 38 39 40 41 42 43 44 45 46 47 48 49 50

000
ASUS41 KCTP 241903
RWRCTP

REGIONAL WEATHER ROUNDUP
NATIONAL WEATHER SERVICE STATE COLLEGE PA
200 PM EST FRI NOV 24 2017

Note: "fair" indicates few or no clouds below 12,000 feet with no
significant weather and/or obstructions to visibility.

* = STATION THAT DOES NOT REPORT PRECIPITATION /E.G. RAIN...SNOW...ETC/
    THUNDER OR FOG.

PAZ002>004-007>009-013>016-020>023-029>032-242000-
WESTERN PENNSYLVANIA

CITY           SKY/WX    TMP DP  RH WIND       PRES   REMARKS
ERIE           SUNNY     52  26  36 S14G24    29.79F
MEADVILLE      SUNNY     48  24  39 S14G21    29.83F
FRANKLIN*      SUNNY     49  22  34 S16       29.84F
NEW CASTLE     FAIR      51  23  33 VRB7      29.86F
BEAVER COUNTY  NOT AVBL
BUTLER*        SUNNY     50  23  34 SW10      29.88F
PITTSBURGH INT MOSUNNY   51  19  28 SW9       29.88F
PITTSBURGH     SUNNY     51  18  27 S9G17     29.88F
INDIANA*       SUNNY     52  18  25 SW9G16    29.92F
LATROBE        SUNNY     52  46  82 SW9       29.91F
WASHINGTON CO* SUNNY     54  20  26 S10       29.91F
$$

PAZ004>006-010>012-017>019-024>028-033>037-041-042-045-046-049>053-242000-
CENTRAL PENNSYLVANIA

CITY           SKY/WX    TMP DP  RH WIND       PRES   REMARKS
BRADFORD       SUNNY     46  23  40 SW8G20    29.83F
DUBOIS         SUNNY     48  20  32 SW14      29.86F
CLEARFIELD     SUNNY     51  18  27 SW10      29.88F
JOHNSTOWN      SUNNY     50  17  27 SW8       29.88F
ALTOONA        SUNNY     53  20  27 S12       29.90F
STATE COLLEGE  SUNNY     50  19  29 S7        29.91F
WILLIAMSPORT   SUNNY     50  26  39 E5        29.91F
SELINSGROVE    SUNNY     49  26  41 VRB7      29.94F
FT INDIANTOWN  SUNNY     50  20  30 S7        29.95F
CAPITAL CITY   SUNNY     52  20  28 CALM      29.96F
HARRISBURG     SUNNY     53  24  32 SW5       29.95F
YORK           SUNNY     53  24  32 SW5       29.96F
$$

PAZ038>040-043-044-047-048-054-055-060>062-067>071-242000-
EASTERN PENNSYLVANIA

CITY           SKY/WX    TMP DP  RH WIND       PRES   REMARKS
SCRANTON       SUNNY     50  20  30 W9        29.92F
MOUNT POCONO   SUNNY     46  21  37 VRB5      29.91F
ALLENTOWN      SUNNY     51  21  30 SW5       29.97F
QUAKERTOWN*    CLEAR     50  19  29 CALM      29.98F
READING        SUNNY     52  21  29 SW6       29.96F
LANCASTER      SUNNY     50  24  36 CALM      29.97F
COATESVILLE    CLEAR     50  19  29 CALM      29.98F
POTTSTOWN      SUNNY     51  22  31 CALM      29.99F
BLUE BELL      SUNNY     50  23  34 CALM      29.99F
DOYLESTOWN     SUNNY     50  21  32 CALM      29.97F
WILLOW GROVE   NOT AVBL
NORTH PHILA    SUNNY     53  24  32 SW9       30.01F
PHILADELPHIA   SUNNY     51  25  36 SW7       30.00F
$$



USA.gov is the U.S. government's official web portal to all federal, state and local government web resources and services.